User: anonymous   Login
Location: Unspecified
(0.0000°N, 0.0000°E)
Time: 01:29:15
(UTC+00:00)
Language:

NOAA 12 - Orbit

View from above orbital plane
View from above orbital plane
View from above satellite
View from above satellite

Ground track
Ground track

The orbit data is extracted from the following two-line orbital elements,

1 21263U 91032A   18174.58402121 -.00000010 +00000-0 +13840-4 0  9995
2 21263 098.5359 194.6247 0012434 277.0308 082.9458 14.25870782409394
Epoch (UTC): 23 June 2018 14:00:59
Eccentricity: 0.0012434
inclination: 98.5359°
perigee height: 796 km
apogee height: 814 km
right ascension of ascending node: 194.6247°
argument of perigee: 277.0308°
revolutions per day: 14.25870782
mean anomaly at epoch: 82.9458°
orbit number at epoch: 40939

The dashed part of the orbit path shows where the satellite is in the earth's shadow,  

DLR